{"data":{"norad_id":59572,"intl_designator":"2024-076J","name":"STARLINK-31666","alt_names":[],"object_type":"PAYLOAD","status":"ACTIVE","operator":null,"country":"US","launch_date":"2024-04-23","launch_site_code":"AFETR","launch_vehicle":null,"mission":null,"orbit_class":"UNKNOWN","rcs_meters":null,"size_class":null,"mass_kg":null,"dimensions":null,"purposes":["comms"],"wikipedia_slug":null,"has_3d_model":false,"image_url":null,"decayed_at":null,"tle_current":{"epoch":"2026-05-25T03:08:24.504288Z","epoch_age_seconds":64570,"freshness":"FRESH","line1":"1 59572U 24076J   26145.13083917  .00001735  00000+0  72560-4 0  9996","line2":"2 59572  43.0047 290.3325 0001077 271.3548  88.7180 15.27571562118279","mean_motion":15.27571562,"eccentricity":0.0001077,"inclination_deg":43.0047,"raan_deg":290.3325,"arg_perigee_deg":271.3548,"mean_anomaly_deg":88.718,"bstar":7.256e-5,"rev_number":11827,"period_min":94.267269424331,"perigee_km":482.33541009976,"apogee_km":483.81331502726,"semimajor_km":6861.2113625635,"source":"CELESTRAK","updated_at":"2026-05-25T13:38:18.986149Z"}}}